Regional Weather Roundup
Issued by NWS

Home | Current Version | Previous Version | Text Only | Print | Product List | Glossary On
Versions: 1 2 3 4 5 6 7 8 9 10 11 12 13 14 15 16 17 18 19 20 21 22 23 24 25 26 27 28 29 30 31 32 33 34 35 36 37 38 39 40 41 42 43 44 45 46 47 48 49 50
000
ASUS43 KTOP 110159
RWRKS

WEATHER ROUNDUP FOR KANSAS
NATIONAL WEATHER SERVICE GOODLAND KS
800 PM CST SAT DEC 10 2016

NOTE:  "FAIR" INDICATES FEW OR NO CLOUDS BELOW 12,000 FEET WITH NO
SIGNIFICANT WEATHER AND/OR OBSTRUCTIONS TO VISIBILITY.

KSZ001>006-013>018-027>032-041>047-110300-
NORTHWEST KANSAS

CITY           SKY/WX    TMP DP  RH WIND       PRES   REMARKS
GOODLAND       CLOUDY    31  25  78 S10       29.74R WCI  22
HAYS           CLOUDY    31  25  78 SE9       29.81F
HILL CITY      CLOUDY    31  24  75 SE6       29.80F
RUSSELL        CLOUDY    34  26  72 S13       29.81F WCI  25
$$

KSZ061>065-074>080-084>089-110300-
SOUTHWEST KANSAS

CITY           SKY/WX    TMP DP  RH WIND       PRES   REMARKS
DODGE CITY     CLOUDY    37  29  72 S18       29.76F WCI  27
ELKHART          N/A     53  26  35 SW10        N/A
GARDEN CITY    CLOUDY    37  28  70 SE13      29.72F WCI  29
GREAT BEND     CLOUDY    34  27  75 SE10      29.81F WCI  26
LIBERAL        CLOUDY    48  34  57 S15       29.72F
$$

KSZ066>073-081>083-090>101-110300-
SOUTHEAST KANSAS

CITY           SKY/WX    TMP DP  RH WIND       PRES   REMARKS
CHANUTE        CLOUDY    41  19  41 S14G21    30.04F
COFFEYVILLE    CLOUDY    40  21  46 S9        30.06F
HUTCHINSON     CLOUDY    37  26  64 SE20      29.89F WCI  27
MEDICINE LODGE   N/A     38  29  70 SE13      29.88F WCI  30
NEWTON         CLOUDY    35  24  64 S17       29.92F WCI  25
PARSONS        CLOUDY    40  20  44 S7        30.06F
WICHITA INTL   CLOUDY    37  24  59 S16       29.94F WCI  28
WICHITA JABRA  CLOUDY    36  24  62 S15       29.94F WCI  27
WINFIELD       CLOUDY    37  24  59 SE9       29.99F
$$

KSZ007>012-019>026-033>040-048>060-102>105-110300-
NORTHEAST KANSAS

CITY           SKY/WX    TMP DP  RH WIND       PRES   REMARKS
CONCORDIA      CLOUDY    34  23  64 SE12      29.89F WCI  25
EMPORIA        CLOUDY    36  21  54 S14       29.95F WCI  27
LAWRENCE       CLOUDY    35  22  58 E10       30.02F WCI  27
MANHATTAN      CLOUDY    36  21  54 SE5       29.95F
OLATHE IND     CLOUDY    37  21  52 SE10      30.03F WCI  30
OLATHE EXE     CLOUDY    36  21  54 S10       30.03F WCI  28
SALINA         CLOUDY    38  25  59 S13       29.89F WCI  30
TOPEKA BILLARD CLOUDY    35  21  56 E7        30.00F
TOPEKA FORBES  CLOUDY    38  21  50 SE8       29.99F
$$



USA.gov is the U.S. government's official web portal to all federal, state and local government web resources and services.